sat.trackr.live / text

‹ back to catalog

SPACEVAN-001

NORAD 58295 · 2023-174AR

PAYLOAD ACTIVE UNKNOWN

§ Identity

Operator
Country
FR
Launch date
2023-11-11
Launch site
AFWTR
Launch vehicle
Mass (kg)
RCS (m²)

External: N2YO · Heavens-Above · Gunter

§ Orbital elements

Epoch: 2026-05-25T04:58:10.242336Z

Period
92.43 min
Inclination
97.3987°
Eccentricity
0.0009008
Mean motion
15.57889240 rev/d
Perigee alt
387.7 km
Apogee alt
399.9 km
Semi-major
6,771.9 km
B*
1.9942e-4
RAAN
241.3686°
Arg perigee
151.7391°
Mean anomaly
208.4355°
Rev number
14,256

§ Raw data

SPACEVAN-0011 58295U 23174AR  26145.20706299  .00014800  00000+0  19942-3 0  99992 58295  97.3987 241.3686 0009008 151.7391 208.4355 15.57889240142562

JSON: /api/v1/satellites/58295 · /tle

For live sub-satellite position, see the globe view (requires WebGL).

§ Visibility from observer

Set your observer location to see the next 7 days of passes ≥ 10°. The values pass through the URL so the page stays shareable.

No JS? Fill the form by hand. The geolocation button needs JavaScript.

§ Radio — SatNOGS DB

ModeDescriptionDownlinkUplink
FM Mode S - Transmitter 2.272 GHz
FM Mode S - Transmitter 2.289 GHz
FM Telemetry 401.050 MHz

3 transmitters · refreshed weekly from db.satnogs.org